IGO376 VOHS-VECC

Flight info

Callsign IGO376
Flight time 1h 39m
Altitude 35000
Route VIRKO7 SAPNU W41 KAKID KAKID2A
Aircraft A320/M-SDE3FGHIRWY/LB1

Departure

Time 2026-05-05 06:53
Airport Rajiv Gandhi International Airport (VOHS)

Arrival

Time 2026-05-05 08:32
Airport Netaji Subhash Chandra Bose International Airport (VECC)
Time Latitude Longitude Altitude Speed Heading
2026-05-05 06:26 17.23423 78.42961 1998 ft 0 kts 356°
2026-05-05 06:39 17.23416 78.42961 1996 ft 4 kts 356°
2026-05-05 06:39 17.23389 78.42964 1996 ft 4 kts 351°
2026-05-05 06:39 17.23363 78.42969 1997 ft 4 kts 342°
2026-05-05 06:40 17.23339 78.42981 1997 ft 4 kts 310°
2026-05-05 06:40 17.23332 78.42995 1996 ft 1 kts 269°
2026-05-05 06:40 17.23332 78.42998 1998 ft 0 kts 269°
2026-05-05 06:43 17.23332 78.42980 1997 ft 5 kts 269°
2026-05-05 06:43 17.23331 78.42932 1997 ft 9 kts 269°
2026-05-05 06:43 17.23330 78.42853 1998 ft 13 kts 270°
2026-05-05 06:43 17.23329 78.42749 1998 ft 16 kts 268°
2026-05-05 06:44 17.23328 78.42626 1997 ft 18 kts 270°
2026-05-05 06:44 17.23328 78.42486 1998 ft 20 kts 268°
2026-05-05 06:44 17.23328 78.42347 1999 ft 13 kts 271°
2026-05-05 06:44 17.23301 78.42257 1998 ft 13 kts 214°
2026-05-05 06:45 17.23233 78.42194 1997 ft 16 kts 254°
2026-05-05 06:45 17.23230 78.42085 1995 ft 15 kts 276°
2026-05-05 06:45 17.23206 78.42043 1995 ft 1 kts 153°
2026-05-05 06:45 17.23206 78.42047 1995 ft 1 kts 110°
2026-05-05 06:46 17.23207 78.42057 1995 ft 3 kts 89°
2026-05-05 06:46 17.23221 78.42092 1993 ft 7 kts 66°
2026-05-05 06:46 17.23230 78.42149 1996 ft 8 kts 89°
2026-05-05 06:46 17.23223 78.42210 1997 ft 9 kts 117°
2026-05-05 06:47 17.23164 78.42235 1998 ft 11 kts 175°
2026-05-05 06:47 17.23088 78.42204 1997 ft 14 kts 229°
2026-05-05 06:47 17.23072 78.42098 1997 ft 16 kts 270°
2026-05-05 06:47 17.23073 78.41968 1995 ft 19 kts 271°
2026-05-05 06:48 17.23069 78.41817 1992 ft 22 kts 269°
2026-05-05 06:48 17.23066 78.41654 1996 ft 23 kts 268°
2026-05-05 06:48 17.23063 78.41480 1995 ft 25 kts 269°
2026-05-05 06:48 17.23041 78.41346 1993 ft 15 kts 229°
2026-05-05 06:49 17.22950 78.41303 1994 ft 13 kts 178°
2026-05-05 06:49 17.22942 78.41304 1995 ft 0 kts 175°
2026-05-05 06:51 17.22936 78.41304 1996 ft 2 kts 175°
2026-05-05 06:51 17.22909 78.41308 1997 ft 6 kts 170°
2026-05-05 06:51 17.22865 78.41328 1998 ft 8 kts 131°
2026-05-05 06:52 17.22857 78.41384 1998 ft 5 kts 88°
2026-05-05 06:52 17.22860 78.41469 1998 ft 33 kts 89°
2026-05-05 06:52 17.22866 78.42003 1996 ft 121 kts 89°
2026-05-05 06:52 17.22882 78.43200 2065 ft 194 kts 89°
2026-05-05 06:53 17.22924 78.44715 2655 ft 227 kts 88°
2026-05-05 06:53 17.23018 78.46481 3064 ft 258 kts 86°
2026-05-05 06:53 17.23174 78.48487 3338 ft 296 kts 85°
2026-05-05 06:53 17.23391 78.50712 3330 ft 313 kts 84°
2026-05-05 06:54 17.23649 78.52899 3417 ft 290 kts 83°
2026-05-05 06:54 17.23891 78.54929 3573 ft 275 kts 85°
2026-05-05 06:54 17.24043 78.56941 4199 ft 285 kts 86°
2026-05-05 06:54 17.24221 78.59007 5480 ft 281 kts 84°
2026-05-05 06:55 17.24456 78.61050 6535 ft 285 kts 82°
2026-05-05 06:55 17.24756 78.63121 7551 ft 289 kts 80°
2026-05-05 06:55 17.25102 78.65200 8601 ft 292 kts 79°
2026-05-05 06:55 17.25479 78.67309 9664 ft 296 kts 78°
2026-05-05 06:56 17.25875 78.69457 10436 ft 311 kts 78°
2026-05-05 06:56 17.26302 78.71755 10965 ft 330 kts 79°
2026-05-05 06:56 17.26749 78.74150 11770 ft 339 kts 79°
2026-05-05 06:56 17.27050 78.75763 12360 ft 342 kts 79°
2026-05-05 06:57 17.27663 78.79079 13546 ft 350 kts 80°
2026-05-05 06:57 17.27969 78.80746 14101 ft 354 kts 80°
2026-05-05 06:57 17.28436 78.83297 14883 ft 359 kts 80°
2026-05-05 06:57 17.29059 78.86717 15884 ft 365 kts 80°
2026-05-05 06:58 17.29383 78.88493 16330 ft 368 kts 80°
2026-05-05 06:58 17.29867 78.91143 17032 ft 373 kts 80°
2026-05-05 06:58 17.30356 78.93818 17728 ft 377 kts 80°
2026-05-05 06:58 17.30847 78.96497 18391 ft 382 kts 80°
2026-05-05 06:59 17.31357 78.99281 19015 ft 387 kts 80°
2026-05-05 06:59 17.31861 79.02038 19597 ft 392 kts 80°
2026-05-05 06:59 17.32376 79.04855 20171 ft 397 kts 80°
2026-05-05 06:59 17.32901 79.07723 20749 ft 402 kts 80°
2026-05-05 07:00 17.33430 79.10617 21298 ft 408 kts 80°
2026-05-05 07:00 17.33968 79.13561 21847 ft 413 kts 81°
2026-05-05 07:00 17.34509 79.16529 22396 ft 418 kts 81°
2026-05-05 07:00 17.35057 79.19547 22940 ft 423 kts 81°
2026-05-05 07:01 17.35608 79.22587 23469 ft 428 kts 81°
2026-05-05 07:01 17.36159 79.25628 23903 ft 432 kts 81°
2026-05-05 07:01 17.36723 79.28733 24369 ft 436 kts 81°
2026-05-05 07:01 17.37287 79.31860 24828 ft 439 kts 81°
2026-05-05 07:02 17.37857 79.35021 25291 ft 442 kts 80°
2026-05-05 07:02 17.38431 79.38197 25744 ft 445 kts 80°
2026-05-05 07:02 17.39012 79.41407 26199 ft 448 kts 80°
2026-05-05 07:02 17.39593 79.44621 26664 ft 451 kts 80°
2026-05-05 07:03 17.40180 79.47865 27099 ft 454 kts 80°
2026-05-05 07:03 17.40760 79.51086 27534 ft 458 kts 79°
2026-05-05 07:03 17.41354 79.54383 27955 ft 461 kts 79°
2026-05-05 07:03 17.41950 79.57687 28390 ft 464 kts 79°
2026-05-05 07:04 17.42552 79.61016 28817 ft 467 kts 79°
2026-05-05 07:04 17.43156 79.64369 29248 ft 470 kts 79°
2026-05-05 07:04 17.43763 79.67753 29693 ft 473 kts 79°
2026-05-05 07:04 17.44369 79.71146 30104 ft 476 kts 79°
2026-05-05 07:05 17.44979 79.74570 30494 ft 479 kts 79°
2026-05-05 07:05 17.45589 79.78007 30883 ft 481 kts 79°
2026-05-05 07:05 17.46202 79.81466 31286 ft 483 kts 79°
2026-05-05 07:05 17.46817 79.84934 31676 ft 485 kts 79°
2026-05-05 07:06 17.47437 79.88417 32138 ft 486 kts 79°
2026-05-05 07:06 17.48056 79.91892 32725 ft 483 kts 79°
2026-05-05 07:06 17.48673 79.95339 33318 ft 481 kts 79°
2026-05-05 07:06 17.49287 79.98782 33920 ft 479 kts 79°
2026-05-05 07:07 17.49886 80.02160 34422 ft 477 kts 79°
2026-05-05 07:07 17.50500 80.05623 34772 ft 477 kts 79°
2026-05-05 07:07 17.51339 80.08981 34870 ft 474 kts 73°
2026-05-05 07:07 17.52276 80.12241 34900 ft 463 kts 73°
2026-05-05 07:08 17.53205 80.15453 34896 ft 459 kts 73°
2026-05-05 07:08 17.55044 80.21805 34897 ft 457 kts 73°
2026-05-05 07:09 17.56879 80.28166 34899 ft 456 kts 73°
2026-05-05 07:09 17.58713 80.34552 34896 ft 457 kts 73°
2026-05-05 07:10 17.60538 80.40936 34899 ft 457 kts 73°
2026-05-05 07:10 17.62354 80.47286 34901 ft 457 kts 73°
2026-05-05 07:11 17.64198 80.53705 34897 ft 457 kts 73°
2026-05-05 07:11 17.66015 80.60071 34902 ft 458 kts 73°
2026-05-05 07:12 17.67831 80.66461 34898 ft 458 kts 73°
2026-05-05 07:12 17.68753 80.69698 34889 ft 469 kts 73°
2026-05-05 07:12 17.69692 80.72997 34886 ft 476 kts 73°
2026-05-05 07:13 17.71598 80.79703 34882 ft 480 kts 73°
2026-05-05 07:13 17.73522 80.86478 34878 ft 481 kts 73°
2026-05-05 07:14 17.75420 80.93167 34877 ft 481 kts 73°
2026-05-05 07:14 17.77338 80.99952 34874 ft 482 kts 73°
2026-05-05 07:15 17.79241 81.06690 34872 ft 482 kts 73°
2026-05-05 07:15 17.81134 81.13379 34868 ft 482 kts 73°
2026-05-05 07:16 17.83044 81.20135 34868 ft 482 kts 72°
2026-05-05 07:16 17.85928 81.26456 34869 ft 481 kts 59°
2026-05-05 07:17 17.89274 81.32584 34869 ft 482 kts 59°
2026-05-05 07:17 17.92604 81.38698 34873 ft 483 kts 59°
2026-05-05 07:18 17.95926 81.44825 34873 ft 483 kts 59°
2026-05-05 07:18 17.99255 81.50973 34874 ft 483 kts 59°
2026-05-05 07:19 18.02576 81.57114 34878 ft 483 kts 59°
2026-05-05 07:19 18.05902 81.63266 34876 ft 484 kts 59°
2026-05-05 07:20 18.09224 81.69416 34879 ft 484 kts 59°
2026-05-05 07:20 18.12544 81.75569 34880 ft 484 kts 59°
2026-05-05 07:21 18.15879 81.81738 34876 ft 485 kts 59°
2026-05-05 07:21 18.19215 81.87927 34860 ft 487 kts 60°
2026-05-05 07:22 18.22505 81.94046 34863 ft 488 kts 60°
2026-05-05 07:22 18.25846 82.00267 34868 ft 489 kts 60°
2026-05-05 07:23 18.29193 82.06511 34871 ft 490 kts 60°
2026-05-05 07:23 18.32557 82.12765 34877 ft 491 kts 60°
2026-05-05 07:24 18.35904 82.18996 34882 ft 491 kts 60°
2026-05-05 07:24 18.39260 82.25263 34886 ft 491 kts 60°
2026-05-05 07:25 18.42619 82.31551 34894 ft 491 kts 60°
2026-05-05 07:25 18.45969 82.37837 34903 ft 492 kts 60°
2026-05-05 07:26 18.49324 82.44120 34911 ft 492 kts 60°
2026-05-05 07:26 18.52689 82.50423 34920 ft 493 kts 60°
2026-05-05 07:27 18.56047 82.56728 34928 ft 493 kts 60°
2026-05-05 07:27 18.59404 82.63044 34932 ft 494 kts 60°
2026-05-05 07:28 18.62761 82.69363 34936 ft 494 kts 60°
2026-05-05 07:28 18.66124 82.75693 34938 ft 494 kts 60°
2026-05-05 07:29 18.69481 82.82019 34940 ft 495 kts 60°
2026-05-05 07:29 18.72842 82.88352 34943 ft 495 kts 60°
2026-05-05 07:30 18.76197 82.94682 34945 ft 496 kts 60°
2026-05-05 07:30 18.81241 83.04220 34940 ft 496 kts 60°
2026-05-05 07:31 18.84042 83.09513 34939 ft 496 kts 60°
2026-05-05 07:31 18.87412 83.15882 34938 ft 497 kts 60°
2026-05-05 07:32 18.90766 83.22253 34930 ft 497 kts 60°
2026-05-05 07:32 18.94122 83.28638 34924 ft 497 kts 60°
2026-05-05 07:33 18.97478 83.35027 34913 ft 497 kts 60°
2026-05-05 07:33 19.00854 83.41456 34908 ft 497 kts 60°
2026-05-05 07:34 19.04208 83.47850 34900 ft 497 kts 60°
2026-05-05 07:34 19.07573 83.54249 34897 ft 498 kts 60°
2026-05-05 07:35 19.10930 83.60653 34888 ft 498 kts 60°
2026-05-05 07:35 19.14283 83.67068 34883 ft 498 kts 60°
2026-05-05 07:36 19.17636 83.73491 34887 ft 499 kts 60°
2026-05-05 07:36 19.20993 83.79911 34885 ft 499 kts 60°
2026-05-05 07:37 19.24357 83.86350 34885 ft 499 kts 60°
2026-05-05 07:37 19.27710 83.92787 34888 ft 499 kts 60°
2026-05-05 07:38 19.31055 83.99234 34889 ft 500 kts 60°
2026-05-05 07:38 19.34406 84.05680 34887 ft 500 kts 60°
2026-05-05 07:39 19.37762 84.12133 34891 ft 500 kts 60°
2026-05-05 07:39 19.41133 84.18631 34889 ft 500 kts 60°
2026-05-05 07:40 19.44457 84.25060 34884 ft 500 kts 60°
2026-05-05 07:40 19.47824 84.31561 34876 ft 500 kts 60°
2026-05-05 07:41 19.51150 84.37992 34873 ft 500 kts 61°
2026-05-05 07:41 19.54496 84.44470 34861 ft 500 kts 60°
2026-05-05 07:42 19.57847 84.50959 34846 ft 501 kts 60°
2026-05-05 07:42 19.61185 84.57440 34855 ft 501 kts 60°
2026-05-05 07:43 19.64530 84.63935 34840 ft 501 kts 60°
2026-05-05 07:43 19.67856 84.70397 34843 ft 502 kts 60°
2026-05-05 07:44 19.71205 84.76902 34856 ft 502 kts 60°
2026-05-05 07:44 19.74473 84.83257 34847 ft 503 kts 60°
2026-05-05 07:45 19.77828 84.89776 34850 ft 503 kts 60°
2026-05-05 07:45 19.81181 84.96313 34855 ft 504 kts 61°
2026-05-05 07:46 19.84532 85.02862 34868 ft 504 kts 61°
2026-05-05 07:46 19.87887 85.09412 34871 ft 505 kts 61°
2026-05-05 07:47 19.91244 85.15977 34873 ft 505 kts 61°
2026-05-05 07:47 19.94589 85.22535 34872 ft 505 kts 61°
2026-05-05 07:48 19.97933 85.29100 34880 ft 505 kts 61°
2026-05-05 07:48 20.01281 85.35662 34864 ft 505 kts 61°
2026-05-05 07:49 20.04623 85.42226 34872 ft 505 kts 61°
2026-05-05 07:49 20.07967 85.48798 34877 ft 505 kts 61°
2026-05-05 07:50 20.11307 85.55383 34867 ft 505 kts 61°
2026-05-05 07:50 20.14615 85.61918 34874 ft 505 kts 61°
2026-05-05 07:51 20.17954 85.68506 34878 ft 505 kts 61°
2026-05-05 07:51 20.21288 85.75078 34866 ft 505 kts 61°
2026-05-05 07:52 20.24538 85.81725 34870 ft 506 kts 67°
2026-05-05 07:52 20.26970 85.88758 34871 ft 506 kts 70°
2026-05-05 07:53 20.29362 85.95813 34879 ft 506 kts 70°
2026-05-05 07:53 20.31736 86.02816 34867 ft 506 kts 70°
2026-05-05 07:54 20.34130 86.09864 34876 ft 506 kts 70°
2026-05-05 07:54 20.36507 86.16928 34870 ft 506 kts 70°
2026-05-05 07:55 20.38885 86.23995 34859 ft 506 kts 70°
2026-05-05 07:55 20.41275 86.31053 34860 ft 505 kts 70°
2026-05-05 07:56 20.43659 86.38107 34855 ft 505 kts 70°
2026-05-05 07:56 20.46023 86.45154 34858 ft 505 kts 70°
2026-05-05 07:57 20.48388 86.52225 34858 ft 506 kts 70°
2026-05-05 07:57 20.50751 86.59278 34861 ft 506 kts 70°
2026-05-05 07:58 20.53124 86.66346 34861 ft 506 kts 70°
2026-05-05 07:58 20.55469 86.73363 34861 ft 505 kts 70°
2026-05-05 07:59 20.57842 86.80478 34862 ft 506 kts 70°
2026-05-05 07:59 20.60199 86.87546 34867 ft 506 kts 70°
2026-05-05 08:00 20.62538 86.94577 34867 ft 506 kts 70°
2026-05-05 08:00 20.64891 87.01659 34870 ft 506 kts 70°
2026-05-05 08:01 20.67294 87.08720 34871 ft 506 kts 70°
2026-05-05 08:01 20.69728 87.15761 34872 ft 506 kts 70°
2026-05-05 08:02 20.72149 87.22829 34870 ft 506 kts 70°
2026-05-05 08:02 20.74554 87.29894 34878 ft 506 kts 70°
2026-05-05 08:03 20.76944 87.36928 34869 ft 506 kts 70°
2026-05-05 08:03 20.79360 87.44051 34868 ft 506 kts 70°
2026-05-05 08:04 20.82374 87.50793 34875 ft 504 kts 53°
2026-05-05 08:04 20.87019 87.56361 34871 ft 501 kts 43°
2026-05-05 08:05 20.91934 87.61735 34872 ft 502 kts 43°
2026-05-05 08:05 20.96815 87.67085 34877 ft 502 kts 44°
2026-05-05 08:06 21.01656 87.72408 34875 ft 502 kts 44°
2026-05-05 08:06 21.06522 87.77771 34879 ft 502 kts 44°
2026-05-05 08:07 21.11394 87.83141 34885 ft 502 kts 44°
2026-05-05 08:07 21.16266 87.88511 34888 ft 503 kts 43°
2026-05-05 08:08 21.21149 87.93886 34882 ft 503 kts 44°
2026-05-05 08:08 21.26023 87.99269 34888 ft 503 kts 44°
2026-05-05 08:09 21.30068 88.03750 34893 ft 503 kts 44°
2026-05-05 08:09 21.33311 88.07343 34771 ft 500 kts 44°
2026-05-05 08:09 21.34918 88.09121 34329 ft 500 kts 44°
2026-05-05 08:10 21.37334 88.11794 33547 ft 502 kts 44°
2026-05-05 08:10 21.39770 88.14493 32672 ft 504 kts 44°
2026-05-05 08:10 21.42224 88.17208 31809 ft 506 kts 44°
2026-05-05 08:10 21.44688 88.19938 31198 ft 507 kts 44°
2026-05-05 08:11 21.47120 88.22637 30958 ft 509 kts 44°
2026-05-05 08:11 21.49582 88.25374 30747 ft 510 kts 44°
2026-05-05 08:11 21.52078 88.28081 30524 ft 509 kts 39°
2026-05-05 08:11 21.54900 88.30357 30296 ft 505 kts 28°
2026-05-05 08:12 21.58027 88.32026 30069 ft 500 kts 17°
2026-05-05 08:12 21.61331 88.33118 29827 ft 496 kts 11°
2026-05-05 08:12 21.64663 88.34100 29559 ft 497 kts 11°
2026-05-05 08:12 21.67999 88.35083 29295 ft 498 kts 11°
2026-05-05 08:13 21.71345 88.36073 29036 ft 496 kts 11°
2026-05-05 08:13 21.74628 88.37051 28774 ft 481 kts 11°
2026-05-05 08:13 21.77808 88.38002 28513 ft 466 kts 11°
2026-05-05 08:13 21.80884 88.38921 28254 ft 452 kts 11°
2026-05-05 08:14 21.83875 88.39814 28008 ft 440 kts 11°
2026-05-05 08:14 21.86785 88.40681 27757 ft 430 kts 11°
2026-05-05 08:14 21.89651 88.41532 27505 ft 422 kts 11°
2026-05-05 08:14 21.92464 88.42366 27255 ft 419 kts 11°
2026-05-05 08:15 21.95278 88.43199 27023 ft 417 kts 11°
2026-05-05 08:15 21.98070 88.44026 26789 ft 415 kts 11°
2026-05-05 08:15 22.00842 88.44849 26520 ft 414 kts 11°
2026-05-05 08:15 22.03621 88.45676 26134 ft 412 kts 11°
2026-05-05 08:16 22.06371 88.46496 25670 ft 410 kts 12°
2026-05-05 08:16 22.09129 88.47319 25200 ft 408 kts 12°
2026-05-05 08:16 22.11860 88.48133 24767 ft 406 kts 12°
2026-05-05 08:16 22.14561 88.48937 24388 ft 402 kts 12°
2026-05-05 08:17 22.17245 88.49738 24058 ft 398 kts 12°
2026-05-05 08:17 22.19908 88.50531 23732 ft 396 kts 12°
2026-05-05 08:17 22.22551 88.51318 23403 ft 394 kts 12°
2026-05-05 08:17 22.25187 88.52105 23016 ft 391 kts 12°
2026-05-05 08:18 22.27800 88.52887 22624 ft 388 kts 12°
2026-05-05 08:18 22.30429 88.53426 22237 ft 380 kts
2026-05-05 08:18 22.33051 88.53703 21784 ft 376 kts
2026-05-05 08:18 22.35694 88.53977 20784 ft 388 kts
2026-05-05 08:19 22.38404 88.54258 20019 ft 393 kts
2026-05-05 08:19 22.41168 88.54547 19445 ft 391 kts
2026-05-05 08:19 22.43864 88.54832 18924 ft 386 kts
2026-05-05 08:19 22.46517 88.55114 18414 ft 382 kts
2026-05-05 08:20 22.49157 88.55395 17981 ft 378 kts
2026-05-05 08:20 22.51777 88.55673 17851 ft 378 kts
2026-05-05 08:20 22.54400 88.55949 17864 ft 379 kts
2026-05-05 08:20 22.57041 88.56231 17868 ft 379 kts
2026-05-05 08:21 22.59628 88.56507 17855 ft 378 kts
2026-05-05 08:21 22.62234 88.56785 17413 ft 372 kts
2026-05-05 08:21 22.64756 88.57055 17269 ft 356 kts
2026-05-05 08:21 22.67213 88.57316 16719 ft 354 kts
2026-05-05 08:22 22.69664 88.57574 16171 ft 353 kts
2026-05-05 08:22 22.72106 88.57828 15679 ft 351 kts
2026-05-05 08:22 22.74531 88.58069 15204 ft 348 kts
2026-05-05 08:22 22.76924 88.58300 14763 ft 345 kts
2026-05-05 08:23 22.79311 88.58528 14306 ft 342 kts
2026-05-05 08:23 22.81671 88.58755 13945 ft 337 kts
2026-05-05 08:23 22.83967 88.58980 13831 ft 324 kts
2026-05-05 08:23 22.86168 88.59223 13718 ft 313 kts
2026-05-05 08:24 22.88293 88.59537 13589 ft 303 kts
2026-05-05 08:24 22.90398 88.59885 12869 ft 313 kts
2026-05-05 08:24 22.92605 88.60259 11789 ft 323 kts
2026-05-05 08:24 22.94878 88.60395 10448 ft 331 kts 349°
2026-05-05 08:25 22.96992 88.59438 9120 ft 334 kts 322°
2026-05-05 08:25 22.98467 88.57501 7692 ft 338 kts 296°
2026-05-05 08:25 22.99072 88.55033 6340 ft 341 kts 272°
2026-05-05 08:25 22.98712 88.52558 5586 ft 326 kts 249°
2026-05-05 08:26 22.97614 88.50518 5136 ft 304 kts 230°
2026-05-05 08:26 22.96074 88.49098 4960 ft 278 kts 211°
2026-05-05 08:26 22.94383 88.48272 4617 ft 262 kts 197°
2026-05-05 08:26 22.92546 88.47943 3772 ft 269 kts 186°
2026-05-05 08:27 22.90791 88.47747 3808 ft 239 kts 186°
2026-05-05 08:27 22.89145 88.47557 3177 ft 244 kts 186°
2026-05-05 08:27 22.87468 88.47360 2828 ft 242 kts 186°
2026-05-05 08:27 22.85787 88.47162 2406 ft 243 kts 186°
2026-05-05 08:28 22.84107 88.46964 2034 ft 242 kts 186°
2026-05-05 08:28 22.82469 88.46772 1942 ft 228 kts 186°
2026-05-05 08:28 22.80950 88.46594 1948 ft 210 kts 186°
2026-05-05 08:28 22.79567 88.46431 1964 ft 189 kts 186°
2026-05-05 08:29 22.78335 88.46287 1950 ft 168 kts 186°
2026-05-05 08:29 22.77224 88.46156 1892 ft 155 kts 186°
2026-05-05 08:29 22.76178 88.46034 1761 ft 148 kts 186°
2026-05-05 08:30 22.74181 88.45799 1414 ft 143 kts 186°
2026-05-05 08:30 22.73195 88.45684 1234 ft 142 kts 186°
2026-05-05 08:30 22.72210 88.45568 1046 ft 142 kts 186°
2026-05-05 08:30 22.71229 88.45453 866 ft 141 kts 185°
2026-05-05 08:31 22.70253 88.45339 680 ft 140 kts 185°
2026-05-05 08:31 22.69286 88.45223 460 ft 140 kts 184°
2026-05-05 08:31 22.68321 88.45104 271 ft 139 kts 184°
2026-05-05 08:31 22.67355 88.44998 103 ft 139 kts 183°
2026-05-05 08:32 22.66445 88.44890 26 ft 121 kts 186°
2026-05-05 08:32 22.65778 88.44818 30 ft 74 kts 184°
2026-05-05 08:32 22.65355 88.44772 28 ft 56 kts 183°
2026-05-05 08:32 22.65014 88.44721 25 ft 30 kts 191°
2026-05-05 08:33 22.64851 88.44614 27 ft 23 kts 214°
2026-05-05 08:33 22.64706 88.44510 28 ft 16 kts 213°
2026-05-05 08:33 22.64660 88.44450 26 ft 11 kts 260°
2026-05-05 08:33 22.64646 88.44362 27 ft 13 kts 222°
2026-05-05 08:34 22.64609 88.44352 27 ft 0 kts 182°
2026-05-05 08:35 22.64608 88.44352 27 ft 1 kts 182°
2026-05-05 08:35 22.64579 88.44350 27 ft 7 kts 187°
2026-05-05 08:35 22.64516 88.44341 27 ft 11 kts 187°
2026-05-05 08:35 22.64488 88.44338 27 ft 0 kts 185°
2026-05-05 08:37 22.64487 88.44337 27 ft 1 kts 185°
2026-05-05 08:37 22.64472 88.44336 27 ft 3 kts 185°
2026-05-05 08:38 22.64444 88.44331 27 ft 5 kts 199°
2026-05-05 08:38 22.64428 88.44297 27 ft 6 kts 263°
2026-05-05 08:38 22.64431 88.44250 27 ft 5 kts 275°
2026-05-05 08:38 22.64434 88.44209 27 ft 0 kts 275°
2026-05-05 08:39 22.64435 88.44195 27 ft 3 kts 275°
2026-05-05 08:39 22.64430 88.44166 27 ft 5 kts 234°
2026-05-05 08:39 22.64415 88.44131 27 ft 6 kts 262°
2026-05-05 08:39 22.64417 88.44089 27 ft 3 kts 274°
2026-05-05 08:40 22.64416 88.44078 27 ft 2 kts 266°
2026-05-05 08:40 22.64414 88.44065 27 ft 1 kts 257°
2026-05-05 08:40 22.64412 88.44059 27 ft 0 kts 257°